Change the Weather History Date:

Friday, October 4, 2013

  Actual Average Record
Temperature  
Mean Temperature 64 °F -  
Max Temperature 69 °F 64 °F - ()
Min Temperature 59 °F 52 °F - ()
Degree Days  
Heating Degree Days 1    
Growing Degree Days 14 (Base 50)    
Moisture  
Dew Point 59 °F    
Average Humidity 85    
Maximum Humidity 94    
Minimum Humidity 68    
Precipitation  
Precipitation 0.00 in - - ()
Sea Level Pressure  
Sea Level Pressure 30.02 in    
Wind  
Wind Speed 3 mph ()    
Max Wind Speed 14 mph    
Max Gust Speed -    
Visibility 6.0 miles    
Events Rain , Thunderstorm    
T = Trace of Precipitation, MM = Missing Value Source: Averaged Metar Reports

Daily Weather History Graph

Daily Weather History Graph

Search for Another Location

Airport or City:

Trip Planner

Search our weather history database for the weather conditions in past years. The results will help you decide how hot, cold, wet, or windy it might be!

Date:

Astronomy

Oct. 04, 2013 Rise Set
Actual Time 8:16 AM CEST 7:51 PM CEST
Civil Twilight 7:47 AM CEST 8:19 PM CEST
Nautical Twilight 7:14 AM CEST 8:52 PM CEST
Astronomical Twilight 6:41 AM CEST 9:25 PM CEST
Moon 7:36 AM CEST (10/4) 7:24 PM CEST (10/4)
Length of Visible Light 12h 31m
Length of Day
11h 34m
Waning Crescent, 0% of the Moon is Illuminated
Oct 4
Waning Crescent
Oct 5
New
Oct 12
First Quarter
Oct 19
Full
Oct 27
Last Quarter

Hourly Weather History & Observations

Time (CEST) Temp. Dew Point Humidity Pressure Visibility Wind Dir Wind Speed Gust Speed Precip Events Conditions
5:30 AM 59.0 °F 57.2 °F 94% 29.95 in 6.2 mi Calm Calm - N/A   Scattered Clouds
6:30 AM 60.8 °F 57.2 °F 88% 29.95 in 6.2 mi Calm Calm - N/A   Scattered Clouds
7:00 AM 60.8 °F 57.2 °F 88% 29.95 in 6.2 mi Calm Calm - N/A   Mostly Cloudy
7:30 AM 60.8 °F 59.0 °F 94% 29.95 in 6.2 mi Calm Calm - N/A   Mostly Cloudy
8:00 AM 64.4 °F 59.0 °F 83% 29.95 in 6.2 mi East 5.8 mph - N/A   Scattered Clouds
8:30 AM 62.6 °F 59.0 °F 88% 29.95 in 6.2 mi Calm Calm - N/A   Scattered Clouds
9:00 AM 62.6 °F 59.0 °F 88% 29.95 in 6.2 mi Variable 1.2 mph - N/A   Scattered Clouds
9:30 AM 62.6 °F 59.0 °F 88% 29.95 in 6.2 mi WNW 3.5 mph - N/A   Scattered Clouds
10:00 AM 64.4 °F 60.8 °F 88% 29.95 in 6.2 mi Calm Calm - N/A   Partly Cloudy
10:30 AM 64.4 °F 60.8 °F 88% 29.95 in 6.2 mi Calm Calm - N/A   Partly Cloudy
11:00 AM 66.2 °F 60.8 °F 83% 29.98 in 6.2 mi SE 2.3 mph - N/A   Partly Cloudy
11:30 AM 69.8 °F 60.8 °F 73% 29.98 in 6.2 mi Variable 1.2 mph - N/A   Partly Cloudy
12:00 PM 69.8 °F 60.8 °F 73% 29.98 in 6.2 mi Calm Calm - N/A   Partly Cloudy
12:30 PM 69.8 °F 59.0 °F 68% 29.98 in 6.2 mi West 4.6 mph - N/A   Partly Cloudy
1:00 PM 69.8 °F 59.0 °F 68% 29.98 in 6.2 mi West 12.7 mph - N/A   Partly Cloudy
1:30 PM 69.8 °F 59.0 °F 68% 29.98 in 6.2 mi West 13.8 mph - N/A   Scattered Clouds
2:00 PM 68.0 °F 59.0 °F 73% 30.01 in 6.2 mi WNW 13.8 mph - N/A   Mostly Cloudy
2:30 PM 68.0 °F 60.8 °F 78% 30.01 in 6.2 mi WNW 9.2 mph - N/A   Mostly Cloudy
3:00 PM 64.4 °F 59.0 °F 83% 30.04 in 6.2 mi NNW 11.5 mph - N/A   Mostly Cloudy
3:30 PM 64.4 °F 59.0 °F 83% 30.04 in 6.2 mi North 4.6 mph - N/A   Mostly Cloudy
4:00 PM 64.4 °F 59.0 °F 83% 30.04 in 6.2 mi Variable 2.3 mph - N/A   Mostly Cloudy
4:30 PM 64.4 °F 59.0 °F 83% 30.04 in 6.2 mi ENE 4.6 mph - N/A   Mostly Cloudy
5:00 PM 64.4 °F 59.0 °F 83% 30.04 in 6.2 mi Variable 1.2 mph - N/A   Mostly Cloudy
5:30 PM 64.4 °F 59.0 °F 83% 30.06 in 6.2 mi Variable 1.2 mph - N/A   Scattered Clouds
6:00 PM 64.4 °F 59.0 °F 83% 30.06 in 6.2 mi Calm Calm - N/A Rain Light Rain Showers
6:17 PM 62.6 °F 59.0 °F 88% 30.06 in 5.0 mi SSW 4.6 mph - N/A Rain , Thunderstorm Light Rain Showers
6:30 PM 62.6 °F 59.0 °F 88% 30.06 in 3.7 mi SSW 5.8 mph - N/A Rain , Thunderstorm Rain Showers
7:00 PM 60.8 °F 59.0 °F 94% 30.06 in 3.7 mi Variable 2.3 mph - N/A Rain , Thunderstorm Rain Showers
7:30 PM 60.8 °F 59.0 °F 94% 30.09 in 6.2 mi SW 9.2 mph - N/A   Scattered Clouds
8:00 PM 60.8 °F 59.0 °F 94% 30.09 in 6.2 mi SSW 6.9 mph - N/A   Partly Cloudy
8:30 PM 60.8 °F 59.0 °F 94% 30.09 in 6.2 mi SW 8.1 mph - N/A   Partly Cloudy
9:00 PM 60.8 °F 57.2 °F 88% 30.09 in 6.2 mi SW 5.8 mph - N/A   Partly Cloudy
9:30 PM 60.8 °F 57.2 °F 88% 30.09 in 6.2 mi SSW 6.9 mph - N/A   Partly Cloudy
10:00 PM 60.8 °F 57.2 °F 88% 30.09 in 6.2 mi SW 5.8 mph - N/A   Partly Cloudy
10:30 PM 60.8 °F 57.2 °F 88% 30.12 in - SSW 5.8 mph - N/A   Clear
11:00 PM 60.8 °F 57.2 °F 88% 30.12 in - SSW 6.9 mph - N/A   Clear